sat.trackr.live / text

‹ back to catalog

STARLINK-33566

NORAD 62100 · 2024-220N

PAYLOAD ACTIVE UNKNOWN

§ Identity

Operator
Country
US
Launch date
2024-11-25
Launch site
AFETR
Launch vehicle
Mass (kg)
RCS (m²)

Purposes: comms

External: N2YO · Heavens-Above · Gunter

§ Orbital elements

Epoch: 2026-05-25T05:02:04.348320Z

Period
94.27 min
Inclination
42.9975°
Eccentricity
0.0001091
Mean motion
15.27590271 rev/d
Perigee alt
482.3 km
Apogee alt
483.8 km
Semi-major
6,861.2 km
B*
4.7679e-4
RAAN
118.6888°
Arg perigee
272.8962°
Mean anomaly
87.1765°
Rev number
8,506

§ Raw data

STARLINK-335661 62100U 24220N   26145.20977255  .00012885  00000+0  47679-3 0  99932 62100  42.9975 118.6888 0001091 272.8962  87.1765 15.27590271 85066

JSON: /api/v1/satellites/62100 · /tle

For live sub-satellite position, see the globe view (requires WebGL).

§ Visibility from observer

Set your observer location to see the next 7 days of passes ≥ 10°. The values pass through the URL so the page stays shareable.

No JS? Fill the form by hand. The geolocation button needs JavaScript.